contact:dominique.lefevre@mio.osupytheas.fr, maurice.libes@osupytheas.fr, didier.mallarino@osupytheas.fr
Project:EMSO http://www.emso-fr.org/EMSO-France
Depth: 2436.0 m
Title:EMSO Ligure Ouest : Data MII capteur MICROCAT
DateTime_Computer,Latitude,Longitude,Temperature,Conductivity,Pressure,DateTime_Instrument
DateTime_Computer,Latitude,Longitude,degC,S m-1,dbar,DateTime_Instrument
2020-09-27T00:01:39Z,42.805,6.029,13.2974,4.59978,2469.993,2020-9-27T02:02:32Z
2020-09-27T00:04:43Z,42.805,6.029,13.2979,4.59978,2470.017,2020-9-27T02:05:35Z
2020-09-27T00:07:46Z,42.805,6.029,13.2979,4.59979,2469.984,2020-9-27T02:08:38Z
2020-09-27T00:10:47Z,42.805,6.029,13.2976,4.59978,2469.993,2020-9-27T02:11:40Z
2020-09-27T00:13:51Z,42.805,6.029,13.2976,4.59978,2470.04,2020-9-27T02:14:44Z
2020-09-27T00:16:55Z,42.805,6.029,13.2976,4.59978,2470.017,2020-9-27T02:17:48Z
2020-09-27T00:19:57Z,42.805,6.029,13.2979,4.59978,2469.97,2020-9-27T02:20:49Z
2020-09-27T00:23:00Z,42.805,6.029,13.2976,4.59978,2470.007,2020-9-27T02:23:52Z
2020-09-27T00:26:01Z,42.805,6.029,13.2979,4.59978,2470.017,2020-9-27T02:26:53Z
2020-09-27T00:29:04Z,42.805,6.029,13.2976,4.59979,2469.993,2020-9-27T02:29:57Z
2020-09-27T00:32:07Z,42.805,6.029,13.2978,4.59979,2470.03,2020-9-27T02:33:00Z
2020-09-27T00:35:11Z,42.805,6.029,13.2976,4.59978,2470.03,2020-9-27T02:36:03Z
2020-09-27T00:38:12Z,42.805,6.029,13.2976,4.59979,2469.993,2020-9-27T02:39:05Z
2020-09-27T00:41:14Z,42.805,6.029,13.2979,4.59979,2470.04,2020-9-27T02:42:07Z
2020-09-27T00:44:15Z,42.805,6.029,13.2976,4.59978,2470.053,2020-9-27T02:45:08Z
2020-09-27T00:47:19Z,42.805,6.029,13.2979,4.59978,2470.03,2020-9-27T02:48:11Z
2020-09-27T00:50:22Z,42.805,6.029,13.2976,4.59978,2470.03,2020-9-27T02:51:15Z
2020-09-27T00:53:25Z,42.805,6.029,13.2980,4.59978,2469.993,2020-9-27T02:54:18Z
2020-09-27T00:56:28Z,42.805,6.029,13.2982,4.59978,2470.04,2020-9-27T02:57:20Z
2020-09-27T00:59:31Z,42.805,6.029,13.2976,4.59979,2469.993,2020-9-27T03:00:24Z
2020-09-27T01:02:34Z,42.805,6.029,13.2981,4.59980,2470.017,2020-9-27T03:03:26Z
2020-09-27T01:05:37Z,42.805,6.029,13.2979,4.59979,2470.017,2020-9-27T03:06:30Z
2020-09-27T01:08:42Z,42.805,6.029,13.2976,4.59978,2470.053,2020-9-27T03:09:35Z
2020-09-27T01:11:46Z,42.805,6.029,13.2979,4.59978,2470.04,2020-9-27T03:12:39Z
2020-09-27T01:14:49Z,42.805,6.029,13.2975,4.59980,2470.017,2020-9-27T03:15:41Z
2020-09-27T01:17:50Z,42.805,6.029,13.2977,4.59980,2469.993,2020-9-27T03:18:43Z
2020-09-27T01:20:55Z,42.805,6.029,13.2976,4.59979,2470.017,2020-9-27T03:21:47Z
2020-09-27T01:23:58Z,42.805,6.029,13.2975,4.59978,2470.063,2020-9-27T03:24:51Z
2020-09-27T01:27:01Z,42.805,6.029,13.2977,4.59979,2470.077,2020-9-27T03:27:54Z
2020-09-27T01:30:03Z,42.805,6.029,13.2976,4.59982,2470.04,2020-9-27T03:30:56Z
2020-09-27T01:33:06Z,42.805,6.029,13.2977,4.59978,2470.04,2020-9-27T03:33:59Z
2020-09-27T01:36:09Z,42.805,6.029,13.2979,4.59986,2470.03,2020-9-27T03:37:02Z
2020-09-27T01:39:14Z,42.805,6.029,13.2983,4.59986,2470.04,2020-9-27T03:40:06Z
2020-09-27T01:42:17Z,42.805,6.029,13.2974,4.59978,2470.04,2020-9-27T03:43:10Z
2020-09-27T01:45:19Z,42.805,6.029,13.2980,4.59978,2470.017,2020-9-27T03:46:11Z
2020-09-27T01:48:23Z,42.805,6.029,13.2980,4.59978,2470.063,2020-9-27T03:49:16Z
2020-09-27T01:51:28Z,42.805,6.029,13.2987,4.59988,2470.077,2020-9-27T03:52:20Z
2020-09-27T01:54:30Z,42.805,6.029,13.2982,4.59987,2470.04,2020-9-27T03:55:22Z
2020-09-27T01:57:31Z,42.805,6.029,13.2976,4.59979,2470.04,2020-9-27T03:58:24Z
2020-09-27T02:00:35Z,42.805,6.029,13.2980,4.59979,2470.053,2020-9-27T04:01:27Z
2020-09-27T02:03:38Z,42.805,6.029,13.2979,4.59978,2470.077,2020-9-27T04:04:31Z
2020-09-27T02:06:41Z,42.805,6.029,13.2982,4.59984,2470.04,2020-9-27T04:07:33Z
2020-09-27T02:09:43Z,42.805,6.029,13.2978,4.59980,2470.1,2020-9-27T04:10:36Z
2020-09-27T02:12:47Z,42.805,6.029,13.2986,4.59988,2470.087,2020-9-27T04:13:39Z
2020-09-27T02:15:51Z,42.805,6.029,13.2977,4.59978,2470.053,2020-9-27T04:16:43Z
2020-09-27T02:18:52Z,42.805,6.029,13.2981,4.59980,2470.1,2020-9-27T04:19:45Z
2020-09-27T02:21:55Z,42.805,6.029,13.2985,4.59989,2470.063,2020-9-27T04:22:47Z
2020-09-27T02:24:59Z,42.805,6.029,13.2982,4.59980,2470.063,2020-9-27T04:25:51Z
2020-09-27T02:28:02Z,42.805,6.029,13.2984,4.59991,2470.063,2020-9-27T04:28:55Z
2020-09-27T02:31:05Z,42.805,6.029,13.2981,4.59993,2470.063,2020-9-27T04:31:58Z
2020-09-27T02:34:09Z,42.805,6.029,13.2991,4.59996,2470.087,2020-9-27T04:35:01Z
2020-09-27T02:37:13Z,42.805,6.029,13.2982,4.59989,2470.1,2020-9-27T04:38:06Z
2020-09-27T02:40:15Z,42.805,6.029,13.2984,4.59994,2470.1,2020-9-27T04:41:07Z
2020-09-27T02:43:16Z,42.805,6.029,13.2975,4.59979,2470.1,2020-9-27T04:44:09Z
2020-09-27T02:46:21Z,42.805,6.029,13.2983,4.59981,2470.063,2020-9-27T04:47:14Z
2020-09-27T02:49:26Z,42.805,6.029,13.2983,4.59996,2470.11,2020-9-27T04:50:18Z
2020-09-27T02:52:30Z,42.805,6.029,13.2989,4.59990,2470.1,2020-9-27T04:53:23Z
2020-09-27T02:55:32Z,42.805,6.029,13.2992,4.60002,2470.11,2020-9-27T04:56:25Z
2020-09-27T02:58:35Z,42.805,6.029,13.2990,4.59991,2470.11,2020-9-27T04:59:27Z
2020-09-27T03:01:37Z,42.805,6.029,13.2979,4.59989,2470.087,2020-9-27T05:02:30Z
2020-09-27T03:04:39Z,42.805,6.029,13.2987,4.59991,2470.063,2020-9-27T05:05:32Z
2020-09-27T03:07:43Z,42.805,6.029,13.2976,4.59986,2470.087,2020-9-27T05:08:35Z
2020-09-27T03:10:44Z,42.805,6.029,13.2989,4.60000,2470.1,2020-9-27T05:11:37Z
2020-09-27T03:13:48Z,42.805,6.029,13.2983,4.59991,2470.063,2020-9-27T05:14:40Z
2020-09-27T03:16:51Z,42.805,6.029,13.2987,4.59991,2470.087,2020-9-27T05:17:44Z
2020-09-27T03:19:56Z,42.805,6.029,13.2990,4.60002,2470.077,2020-9-27T05:20:48Z
2020-09-27T03:22:59Z,42.805,6.029,13.2991,4.60000,2470.1,2020-9-27T05:23:52Z
2020-09-27T03:26:03Z,42.805,6.029,13.2988,4.60010,2470.053,2020-9-27T05:26:56Z
2020-09-27T03:29:08Z,42.805,6.029,13.2994,4.59996,2470.1,2020-9-27T05:30:00Z
2020-09-27T03:32:11Z,42.805,6.029,13.2991,4.60016,2470.11,2020-9-27T05:33:04Z
2020-09-27T03:35:12Z,42.805,6.029,13.2986,4.60003,2470.087,2020-9-27T05:36:05Z
2020-09-27T03:38:16Z,42.805,6.029,13.2990,4.59994,2470.087,2020-9-27T05:39:09Z
2020-09-27T03:41:18Z,42.805,6.029,13.2988,4.59994,2470.087,2020-9-27T05:42:10Z
2020-09-27T03:44:20Z,42.805,6.029,13.2990,4.60001,2470.063,2020-9-27T05:45:13Z
2020-09-27T03:47:25Z,42.805,6.029,13.2991,4.59992,2470.087,2020-9-27T05:48:17Z
2020-09-27T03:50:28Z,42.805,6.029,13.2990,4.59991,2470.11,2020-9-27T05:51:21Z
2020-09-27T03:53:30Z,42.805,6.029,13.2982,4.60002,2470.087,2020-9-27T05:54:23Z
2020-09-27T03:56:34Z,42.805,6.029,13.2996,4.59996,2470.063,2020-9-27T05:57:26Z
2020-09-27T03:59:35Z,42.805,6.029,13.2986,4.60014,2470.063,2020-9-27T06:00:28Z
2020-09-27T04:02:39Z,42.805,6.029,13.2990,4.60008,2470.124,2020-9-27T06:03:31Z
2020-09-27T04:05:44Z,42.805,6.029,13.2991,4.59996,2470.087,2020-9-27T06:06:36Z
2020-09-27T04:08:46Z,42.805,6.029,13.3000,4.60012,2470.11,2020-9-27T06:09:38Z
2020-09-27T04:11:49Z,42.805,6.029,13.2990,4.60014,2470.11,2020-9-27T06:12:41Z
2020-09-27T04:14:50Z,42.805,6.029,13.2992,4.60011,2470.124,2020-9-27T06:15:43Z
2020-09-27T04:17:52Z,42.805,6.029,13.2986,4.60003,2470.063,2020-9-27T06:18:44Z
2020-09-27T04:20:56Z,42.805,6.029,13.2986,4.60000,2470.087,2020-9-27T06:21:49Z
2020-09-27T04:23:59Z,42.805,6.029,13.2987,4.59990,2470.087,2020-9-27T06:24:52Z
2020-09-27T04:27:04Z,42.805,6.029,13.2996,4.60001,2470.11,2020-9-27T06:27:57Z
2020-09-27T04:30:09Z,42.805,6.029,13.2992,4.60001,2470.11,2020-9-27T06:31:01Z
2020-09-27T04:33:13Z,42.805,6.029,13.2994,4.60003,2470.1,2020-9-27T06:34:06Z
2020-09-27T04:36:17Z,42.805,6.029,13.2989,4.59999,2470.124,2020-9-27T06:37:09Z
2020-09-27T04:39:19Z,42.805,6.029,13.2983,4.60001,2470.1,2020-9-27T06:40:12Z
2020-09-27T04:42:21Z,42.805,6.029,13.2986,4.60017,2470.077,2020-9-27T06:43:13Z
2020-09-27T04:45:23Z,42.805,6.029,13.2991,4.60009,2470.087,2020-9-27T06:46:16Z
2020-09-27T04:48:27Z,42.805,6.029,13.2994,4.60003,2470.087,2020-9-27T06:49:19Z
2020-09-27T04:51:30Z,42.805,6.029,13.2986,4.60011,2470.087,2020-9-27T06:52:23Z
2020-09-27T04:54:35Z,42.805,6.029,13.2986,4.59998,2470.124,2020-9-27T06:55:27Z
2020-09-27T04:57:37Z,42.805,6.029,13.2995,4.60002,2470.133,2020-9-27T06:58:30Z
2020-09-27T05:00:41Z,42.805,6.029,13.2990,4.60013,2470.087,2020-9-27T07:01:33Z
2020-09-27T05:03:42Z,42.805,6.029,13.2983,4.60006,2470.1,2020-9-27T07:04:34Z
2020-09-27T05:06:44Z,42.805,6.029,13.2990,4.60001,2470.11,2020-9-27T07:07:36Z
2020-09-27T05:09:49Z,42.805,6.029,13.2986,4.60001,2470.133,2020-9-27T07:10:41Z
2020-09-27T05:12:50Z,42.805,6.029,13.2988,4.60011,2470.124,2020-9-27T07:13:42Z
2020-09-27T05:15:52Z,42.805,6.029,13.2989,4.60004,2470.11,2020-9-27T07:16:44Z
2020-09-27T05:18:54Z,42.805,6.029,13.2979,4.60008,2470.124,2020-9-27T07:19:46Z
2020-09-27T05:21:58Z,42.805,6.029,13.2988,4.60016,2470.087,2020-9-27T07:22:50Z
2020-09-27T05:25:01Z,42.805,6.029,13.2996,4.60007,2470.133,2020-9-27T07:25:54Z
2020-09-27T05:28:05Z,42.805,6.029,13.2989,4.60001,2470.11,2020-9-27T07:28:58Z
2020-09-27T05:31:10Z,42.805,6.029,13.2991,4.60008,2470.11,2020-9-27T07:32:03Z
2020-09-27T05:34:13Z,42.805,6.029,13.2990,4.60008,2470.087,2020-9-27T07:35:06Z
2020-09-27T05:37:14Z,42.805,6.029,13.2984,4.60005,2470.087,2020-9-27T07:38:07Z
2020-09-27T05:40:18Z,42.805,6.029,13.2976,4.60011,2470.124,2020-9-27T07:41:10Z
2020-09-27T05:43:21Z,42.805,6.029,13.2989,4.60006,2470.11,2020-9-27T07:44:14Z
2020-09-27T05:46:25Z,42.805,6.029,13.2993,4.60007,2470.087,2020-9-27T07:47:17Z
2020-09-27T05:49:26Z,42.805,6.029,13.2989,4.60002,2470.124,2020-9-27T07:50:18Z
2020-09-27T05:52:28Z,42.805,6.029,13.2993,4.60010,2470.133,2020-9-27T07:53:21Z
2020-09-27T05:55:32Z,42.805,6.029,13.2984,4.60011,2470.087,2020-9-27T07:56:24Z
2020-09-27T05:58:35Z,42.805,6.029,13.2987,4.60011,2470.124,2020-9-27T07:59:28Z
2020-09-27T06:01:38Z,42.805,6.029,13.3000,4.60004,2470.147,2020-9-27T08:02:30Z
2020-09-27T06:04:41Z,42.805,6.029,13.2996,4.60014,2470.11,2020-9-27T08:05:33Z
2020-09-27T06:07:43Z,42.805,6.029,13.2986,4.60003,2470.11,2020-9-27T08:08:36Z
2020-09-27T06:10:47Z,42.805,6.029,13.2990,4.59999,2470.087,2020-9-27T08:11:39Z
2020-09-27T06:13:51Z,42.805,6.029,13.2990,4.60011,2470.087,2020-9-27T08:14:44Z
2020-09-27T06:16:55Z,42.805,6.029,13.2994,4.60017,2470.124,2020-9-27T08:17:47Z
2020-09-27T06:19:59Z,42.805,6.029,13.2989,4.59999,2470.124,2020-9-27T08:20:51Z
2020-09-27T06:23:01Z,42.805,6.029,13.2995,4.60019,2470.124,2020-9-27T08:23:53Z
2020-09-27T06:26:04Z,42.805,6.029,13.2994,4.60010,2470.1,2020-9-27T08:26:57Z
2020-09-27T06:29:08Z,42.805,6.029,13.2986,4.60000,2470.11,2020-9-27T08:30:01Z
2020-09-27T06:32:12Z,42.805,6.029,13.2986,4.60000,2470.133,2020-9-27T08:33:05Z
2020-09-27T06:35:16Z,42.805,6.029,13.2996,4.60013,2470.11,2020-9-27T08:36:09Z
2020-09-27T06:38:20Z,42.805,6.029,13.2993,4.60001,2470.1,2020-9-27T08:39:13Z
2020-09-27T06:41:23Z,42.805,6.029,13.2997,4.60025,2470.087,2020-9-27T08:42:16Z
2020-09-27T06:44:26Z,42.805,6.029,13.2992,4.60011,2470.124,2020-9-27T08:45:19Z
2020-09-27T06:47:30Z,42.805,6.029,13.2987,4.60023,2470.087,2020-9-27T08:48:23Z
2020-09-27T06:50:33Z,42.805,6.029,13.2998,4.60004,2470.087,2020-9-27T08:51:26Z
2020-09-27T06:53:37Z,42.805,6.029,13.2987,4.60014,2470.11,2020-9-27T08:54:30Z
2020-09-27T06:56:40Z,42.805,6.029,13.2997,4.60019,2470.124,2020-9-27T08:57:33Z
2020-09-27T06:59:42Z,42.805,6.029,13.2995,4.60014,2470.063,2020-9-27T09:00:35Z
2020-09-27T07:02:46Z,42.805,6.029,13.2991,4.60009,2470.124,2020-9-27T09:03:39Z
2020-09-27T07:05:50Z,42.805,6.029,13.2989,4.60005,2470.11,2020-9-27T09:06:42Z
2020-09-27T07:08:53Z,42.805,6.029,13.2992,4.60008,2470.11,2020-9-27T09:09:45Z
2020-09-27T07:11:54Z,42.805,6.029,13.2990,4.60006,2470.063,2020-9-27T09:12:47Z
2020-09-27T07:14:56Z,42.805,6.029,13.2993,4.60017,2470.077,2020-9-27T09:15:48Z
2020-09-27T07:17:57Z,42.805,6.029,13.2987,4.60009,2470.087,2020-9-27T09:18:50Z
2020-09-27T07:21:02Z,42.805,6.029,13.2990,4.60005,2470.1,2020-9-27T09:21:55Z
2020-09-27T07:24:05Z,42.805,6.029,13.2990,4.60013,2470.124,2020-9-27T09:24:57Z
2020-09-27T07:27:08Z,42.805,6.029,13.2991,4.59999,2470.133,2020-9-27T09:28:00Z
2020-09-27T07:30:12Z,42.805,6.029,13.2994,4.60009,2470.1,2020-9-27T09:31:05Z
2020-09-27T07:33:13Z,42.805,6.029,13.2996,4.60003,2470.11,2020-9-27T09:34:06Z
2020-09-27T07:36:17Z,42.805,6.029,13.2987,4.60010,2470.124,2020-9-27T09:37:09Z
2020-09-27T07:39:19Z,42.805,6.029,13.2990,4.60005,2470.087,2020-9-27T09:40:12Z
2020-09-27T07:42:23Z,42.805,6.029,13.2987,4.60004,2470.147,2020-9-27T09:43:16Z
2020-09-27T07:45:25Z,42.805,6.029,13.2993,4.60007,2470.124,2020-9-27T09:46:17Z
2020-09-27T07:48:28Z,42.805,6.029,13.2990,4.60003,2470.11,2020-9-27T09:49:21Z
2020-09-27T07:51:33Z,42.805,6.029,13.2992,4.59993,2470.11,2020-9-27T09:52:25Z
2020-09-27T07:54:34Z,42.805,6.029,13.2995,4.60000,2470.124,2020-9-27T09:55:26Z
2020-09-27T07:57:38Z,42.805,6.029,13.2990,4.60006,2470.11,2020-9-27T09:58:30Z
2020-09-27T08:00:42Z,42.805,6.029,13.2990,4.60011,2470.087,2020-9-27T10:01:34Z
2020-09-27T08:03:43Z,42.805,6.029,13.2991,4.60007,2470.11,2020-9-27T10:04:36Z
2020-09-27T08:06:47Z,42.805,6.029,13.2993,4.60015,2470.063,2020-9-27T10:07:40Z
2020-09-27T08:09:50Z,42.805,6.029,13.2996,4.60009,2470.063,2020-9-27T10:10:43Z
2020-09-27T08:12:55Z,42.805,6.029,13.2990,4.60006,2470.11,2020-9-27T10:13:47Z
2020-09-27T08:15:59Z,42.805,6.029,13.2992,4.60012,2470.1,2020-9-27T10:16:51Z
2020-09-27T08:19:02Z,42.805,6.029,13.2985,4.60001,2470.063,2020-9-27T10:19:55Z
2020-09-27T08:22:06Z,42.805,6.029,13.2993,4.60008,2470.087,2020-9-27T10:22:59Z
2020-09-27T08:25:10Z,42.805,6.029,13.2993,4.60019,2470.11,2020-9-27T10:26:03Z
2020-09-27T08:28:12Z,42.805,6.029,13.2994,4.60016,2470.087,2020-9-27T10:29:05Z
2020-09-27T08:31:16Z,42.805,6.029,13.2992,4.60018,2470.1,2020-9-27T10:32:09Z
2020-09-27T08:34:20Z,42.805,6.029,13.2996,4.60008,2470.133,2020-9-27T10:35:12Z
2020-09-27T08:37:21Z,42.805,6.029,13.2992,4.60015,2470.11,2020-9-27T10:38:14Z
2020-09-27T08:40:23Z,42.805,6.029,13.2994,4.60004,2470.11,2020-9-27T10:41:15Z
2020-09-27T08:43:26Z,42.805,6.029,13.2988,4.60014,2470.087,2020-9-27T10:44:19Z
2020-09-27T08:46:30Z,42.805,6.029,13.2985,4.60014,2470.11,2020-9-27T10:47:23Z
2020-09-27T08:49:34Z,42.805,6.029,13.2993,4.60019,2470.087,2020-9-27T10:50:26Z
2020-09-27T08:52:38Z,42.805,6.029,13.2995,4.60015,2470.133,2020-9-27T10:53:30Z
2020-09-27T08:55:41Z,42.805,6.029,13.2991,4.60011,2470.124,2020-9-27T10:56:34Z
2020-09-27T08:58:46Z,42.805,6.029,13.2995,4.60014,2470.147,2020-9-27T10:59:39Z
2020-09-27T09:01:51Z,42.805,6.029,13.2997,4.60023,2470.1,2020-9-27T11:02:43Z
2020-09-27T09:04:52Z,42.805,6.029,13.2991,4.60004,2470.124,2020-9-27T11:05:44Z
2020-09-27T09:07:54Z,42.805,6.029,13.2994,4.60009,2470.087,2020-9-27T11:08:47Z
2020-09-27T09:10:59Z,42.805,6.029,13.2995,4.60010,2470.133,2020-9-27T11:11:51Z
2020-09-27T09:14:02Z,42.805,6.029,13.2993,4.60003,2470.11,2020-9-27T11:14:55Z
2020-09-27T09:17:06Z,42.805,6.029,13.2999,4.60019,2470.063,2020-9-27T11:17:59Z
2020-09-27T09:20:10Z,42.805,6.029,13.2996,4.60017,2470.063,2020-9-27T11:21:02Z
2020-09-27T09:23:15Z,42.805,6.029,13.2997,4.60017,2470.11,2020-9-27T11:24:07Z
2020-09-27T09:26:19Z,42.805,6.029,13.2998,4.60009,2470.087,2020-9-27T11:27:12Z
2020-09-27T09:29:23Z,42.805,6.029,13.2988,4.60008,2470.063,2020-9-27T11:30:16Z
2020-09-27T09:32:25Z,42.805,6.029,13.2996,4.60014,2470.087,2020-9-27T11:33:18Z
2020-09-27T09:35:29Z,42.805,6.029,13.2995,4.60015,2470.087,2020-9-27T11:36:22Z
2020-09-27T09:38:32Z,42.805,6.029,13.2993,4.60004,2470.1,2020-9-27T11:39:24Z
2020-09-27T09:41:34Z,42.805,6.029,13.2997,4.60011,2470.124,2020-9-27T11:42:27Z
2020-09-27T09:44:38Z,42.805,6.029,13.2992,4.60012,2470.124,2020-9-27T11:45:30Z
2020-09-27T09:47:42Z,42.805,6.029,13.2992,4.60009,2470.1,2020-9-27T11:48:35Z
2020-09-27T09:50:46Z,42.805,6.029,13.2991,4.60011,2470.063,2020-9-27T11:51:39Z
2020-09-27T09:53:50Z,42.805,6.029,13.2996,4.60002,2470.11,2020-9-27T11:54:42Z
2020-09-27T09:56:53Z,42.805,6.029,13.2987,4.60004,2470.11,2020-9-27T11:57:46Z
2020-09-27T09:59:54Z,42.805,6.029,13.2986,4.60012,2470.11,2020-9-27T12:00:47Z
2020-09-27T10:02:58Z,42.805,6.029,13.2991,4.60002,2470.087,2020-9-27T12:03:50Z
2020-09-27T10:06:01Z,42.805,6.029,13.2999,4.60009,2470.11,2020-9-27T12:06:54Z
2020-09-27T10:09:04Z,42.805,6.029,13.2999,4.60022,2470.1,2020-9-27T12:09:57Z
2020-09-27T10:12:08Z,42.805,6.029,13.2989,4.59999,2470.1,2020-9-27T12:13:00Z
2020-09-27T10:15:13Z,42.805,6.029,13.2990,4.60003,2470.11,2020-9-27T12:16:05Z
2020-09-27T10:18:17Z,42.805,6.029,13.2996,4.60024,2470.1,2020-9-27T12:19:09Z
2020-09-27T10:21:20Z,42.805,6.029,13.2990,4.60007,2470.087,2020-9-27T12:22:12Z
2020-09-27T10:24:22Z,42.805,6.029,13.2990,4.60006,2470.077,2020-9-27T12:25:15Z
2020-09-27T10:27:26Z,42.805,6.029,13.2994,4.60014,2470.063,2020-9-27T12:28:18Z
2020-09-27T10:30:29Z,42.805,6.029,13.2991,4.60007,2470.114,2020-9-27T12:31:22Z
2020-09-27T10:33:31Z,42.805,6.029,13.2991,4.60013,2470.124,2020-9-27T12:34:24Z
2020-09-27T10:36:35Z,42.805,6.029,13.2995,4.60017,2470.11,2020-9-27T12:37:27Z
2020-09-27T10:39:36Z,42.805,6.029,13.3001,4.60016,2470.11,2020-9-27T12:40:28Z
2020-09-27T10:42:37Z,42.805,6.029,13.2996,4.60022,2470.11,2020-9-27T12:43:30Z
2020-09-27T10:45:41Z,42.805,6.029,13.2991,4.60006,2470.11,2020-9-27T12:46:33Z
2020-09-27T10:48:42Z,42.805,6.029,13.2991,4.60009,2470.11,2020-9-27T12:49:35Z
2020-09-27T10:51:46Z,42.805,6.029,13.3004,4.60026,2470.087,2020-9-27T12:52:39Z
2020-09-27T10:54:50Z,42.805,6.029,13.2996,4.60017,2470.073,2020-9-27T12:55:42Z
2020-09-27T10:57:51Z,42.805,6.029,13.2990,4.60001,2470.087,2020-9-27T12:58:43Z
2020-09-27T11:00:55Z,42.805,6.029,13.2990,4.59996,2470.087,2020-9-27T13:01:47Z
2020-09-27T11:03:56Z,42.805,6.029,13.2988,4.60001,2470.087,2020-9-27T13:04:48Z
2020-09-27T11:06:58Z,42.805,6.029,13.2993,4.60014,2470.11,2020-9-27T13:07:51Z
2020-09-27T11:10:00Z,42.805,6.029,13.2991,4.60000,2470.11,2020-9-27T13:10:53Z
2020-09-27T11:13:02Z,42.805,6.029,13.2986,4.60001,2470.1,2020-9-27T13:13:54Z
2020-09-27T11:16:04Z,42.805,6.029,13.2998,4.60010,2470.1,2020-9-27T13:16:56Z
2020-09-27T11:19:08Z,42.805,6.029,13.2991,4.60003,2470.11,2020-9-27T13:20:01Z
2020-09-27T11:22:12Z,42.805,6.029,13.2990,4.60006,2470.087,2020-9-27T13:23:04Z
2020-09-27T11:25:13Z,42.805,6.029,13.2988,4.60001,2470.087,2020-9-27T13:26:06Z
2020-09-27T11:28:16Z,42.805,6.029,13.2986,4.60008,2470.124,2020-9-27T13:29:09Z
2020-09-27T11:31:19Z,42.805,6.029,13.2990,4.60004,2470.133,2020-9-27T13:32:12Z
2020-09-27T11:34:23Z,42.805,6.029,13.2993,4.60011,2470.1,2020-9-27T13:35:15Z
2020-09-27T11:37:27Z,42.805,6.029,13.2993,4.60016,2470.1,2020-9-27T13:38:20Z
2020-09-27T11:40:31Z,42.805,6.029,13.2998,4.60014,2470.133,2020-9-27T13:41:24Z
2020-09-27T11:43:36Z,42.805,6.029,13.2996,4.60011,2470.1,2020-9-27T13:44:29Z
2020-09-27T11:46:39Z,42.805,6.029,13.2990,4.60009,2470.124,2020-9-27T13:47:32Z
2020-09-27T11:49:42Z,42.805,6.029,13.2993,4.60003,2470.11,2020-9-27T13:50:35Z
2020-09-27T11:52:46Z,42.805,6.029,13.2990,4.60009,2470.124,2020-9-27T13:53:38Z
2020-09-27T11:55:50Z,42.805,6.029,13.2992,4.60008,2470.11,2020-9-27T13:56:42Z
2020-09-27T11:58:52Z,42.805,6.029,13.2992,4.60012,2470.124,2020-9-27T13:59:45Z
2020-09-27T12:01:56Z,42.805,6.029,13.2993,4.60012,2470.11,2020-9-27T14:02:48Z
2020-09-27T12:04:57Z,42.805,6.029,13.2996,4.60009,2470.11,2020-9-27T14:05:50Z
2020-09-27T12:08:01Z,42.805,6.029,13.2994,4.60014,2470.156,2020-9-27T14:08:54Z
2020-09-27T12:11:03Z,42.805,6.029,13.2993,4.60009,2470.11,2020-9-27T14:11:56Z
2020-09-27T12:14:07Z,42.805,6.029,13.2991,4.60010,2470.087,2020-9-27T14:15:00Z
2020-09-27T12:17:09Z,42.805,6.029,13.2996,4.60029,2470.133,2020-9-27T14:18:01Z
2020-09-27T12:20:12Z,42.805,6.029,13.2998,4.60033,2470.147,2020-9-27T14:21:04Z
2020-09-27T12:23:15Z,42.805,6.029,13.2993,4.60011,2470.11,2020-9-27T14:24:08Z
2020-09-27T12:26:18Z,42.805,6.029,13.2990,4.60006,2470.147,2020-9-27T14:27:11Z
2020-09-27T12:29:20Z,42.805,6.029,13.2993,4.60011,2470.147,2020-9-27T14:30:13Z
2020-09-27T12:32:22Z,42.805,6.029,13.2992,4.59999,2470.11,2020-9-27T14:33:15Z
2020-09-27T12:35:25Z,42.805,6.029,13.2995,4.60019,2470.147,2020-9-27T14:36:18Z
2020-09-27T12:38:29Z,42.805,6.029,13.2993,4.60007,2470.156,2020-9-27T14:39:22Z
2020-09-27T12:41:33Z,42.805,6.029,13.2985,4.60003,2470.156,2020-9-27T14:42:25Z
2020-09-27T12:44:35Z,42.805,6.029,13.2996,4.60013,2470.156,2020-9-27T14:45:28Z
2020-09-27T12:47:38Z,42.805,6.029,13.2994,4.60012,2470.156,2020-9-27T14:48:30Z
2020-09-27T12:50:41Z,42.805,6.029,13.2990,4.60009,2470.147,2020-9-27T14:51:34Z
2020-09-27T12:53:42Z,42.805,6.029,13.2996,4.60015,2470.156,2020-9-27T14:54:35Z
2020-09-27T12:56:45Z,42.805,6.029,13.2997,4.60021,2470.11,2020-9-27T14:57:38Z
2020-09-27T12:59:49Z,42.805,6.029,13.2990,4.60006,2470.18,2020-9-27T15:00:42Z
2020-09-27T13:02:54Z,42.805,6.029,13.2991,4.60016,2470.194,2020-9-27T15:03:46Z
2020-09-27T13:05:58Z,42.805,6.029,13.2990,4.60008,2470.171,2020-9-27T15:06:50Z
2020-09-27T13:09:02Z,42.805,6.029,13.2988,4.60016,2470.171,2020-9-27T15:09:54Z
2020-09-27T13:12:06Z,42.805,6.029,13.3000,4.60015,2470.171,2020-9-27T15:12:58Z
2020-09-27T13:15:07Z,42.805,6.029,13.2991,4.60016,2470.147,2020-9-27T15:16:00Z
2020-09-27T13:18:10Z,42.805,6.029,13.2993,4.60000,2470.156,2020-9-27T15:19:03Z
2020-09-27T13:21:13Z,42.805,6.029,13.2991,4.60014,2470.194,2020-9-27T15:22:05Z
2020-09-27T13:24:15Z,42.805,6.029,13.2990,4.60026,2470.194,2020-9-27T15:25:08Z
2020-09-27T13:27:20Z,42.805,6.029,13.2987,4.60008,2470.18,2020-9-27T15:28:13Z
2020-09-27T13:30:23Z,42.805,6.029,13.2992,4.59999,2470.194,2020-9-27T15:31:16Z
2020-09-27T13:33:25Z,42.805,6.029,13.2996,4.60011,2470.18,2020-9-27T15:34:17Z
2020-09-27T13:36:26Z,42.805,6.029,13.2989,4.59999,2470.264,2020-9-27T15:37:19Z
2020-09-27T13:39:31Z,42.805,6.029,13.2996,4.60011,2470.217,2020-9-27T15:40:24Z
2020-09-27T13:42:35Z,42.805,6.029,13.2992,4.60016,2470.171,2020-9-27T15:43:28Z
2020-09-27T13:45:39Z,42.805,6.029,13.2991,4.60022,2470.194,2020-9-27T15:46:32Z
2020-09-27T13:48:43Z,42.805,6.029,13.2993,4.60014,2470.203,2020-9-27T15:49:36Z
2020-09-27T13:51:47Z,42.805,6.029,13.2999,4.60019,2470.18,2020-9-27T15:52:39Z
2020-09-27T13:54:50Z,42.805,6.029,13.2991,4.60013,2470.18,2020-9-27T15:55:43Z
2020-09-27T13:57:54Z,42.805,6.029,13.2991,4.60005,2470.24,2020-9-27T15:58:46Z
2020-09-27T14:00:57Z,42.805,6.029,13.2994,4.60022,2470.203,2020-9-27T16:01:50Z
2020-09-27T14:03:59Z,42.805,6.029,13.2993,4.60009,2470.203,2020-9-27T16:04:52Z
2020-09-27T14:07:03Z,42.805,6.029,13.2992,4.60001,2470.227,2020-9-27T16:07:55Z
2020-09-27T14:10:06Z,42.805,6.029,13.2996,4.60007,2470.203,2020-9-27T16:10:59Z
2020-09-27T14:13:10Z,42.805,6.029,13.2992,4.59998,2470.227,2020-9-27T16:14:02Z
2020-09-27T14:16:13Z,42.805,6.029,13.2993,4.60005,2470.203,2020-9-27T16:17:06Z
2020-09-27T14:19:17Z,42.805,6.029,13.2989,4.60003,2470.24,2020-9-27T16:20:09Z
2020-09-27T14:22:20Z,42.805,6.029,13.2998,4.60013,2470.24,2020-9-27T16:23:13Z
2020-09-27T14:25:24Z,42.805,6.029,13.2991,4.60011,2470.24,2020-9-27T16:26:16Z
2020-09-27T14:28:26Z,42.805,6.029,13.3002,4.60015,2470.24,2020-9-27T16:29:19Z
2020-09-27T14:31:30Z,42.805,6.029,13.3001,4.60015,2470.217,2020-9-27T16:32:23Z
2020-09-27T14:34:34Z,42.805,6.029,13.2996,4.60011,2470.203,2020-9-27T16:35:26Z
2020-09-27T14:37:37Z,42.805,6.029,13.2996,4.60011,2470.227,2020-9-27T16:38:30Z
2020-09-27T14:40:40Z,42.805,6.029,13.2993,4.60003,2470.24,2020-9-27T16:41:33Z
2020-09-27T14:43:45Z,42.805,6.029,13.2991,4.60013,2470.227,2020-9-27T16:44:38Z
2020-09-27T14:46:50Z,42.805,6.029,13.2993,4.60006,2470.25,2020-9-27T16:47:42Z
2020-09-27T14:49:55Z,42.805,6.029,13.2993,4.60015,2470.24,2020-9-27T16:50:47Z
2020-09-27T14:52:58Z,42.805,6.029,13.2991,4.60008,2470.227,2020-9-27T16:53:50Z
2020-09-27T14:55:59Z,42.805,6.029,13.2998,4.60014,2470.227,2020-9-27T16:56:52Z
2020-09-27T14:59:00Z,42.805,6.029,13.3006,4.60023,2470.203,2020-9-27T16:59:53Z
2020-09-27T15:02:02Z,42.805,6.029,13.2991,4.60003,2470.25,2020-9-27T17:02:55Z
2020-09-27T15:05:07Z,42.805,6.029,13.2990,4.60011,2470.24,2020-9-27T17:06:00Z
2020-09-27T15:08:09Z,42.805,6.029,13.2994,4.60021,2470.25,2020-9-27T17:09:01Z
2020-09-27T15:11:10Z,42.805,6.029,13.2997,4.60014,2470.203,2020-9-27T17:12:02Z
2020-09-27T15:14:13Z,42.805,6.029,13.2991,4.60019,2470.227,2020-9-27T17:15:06Z